Weather History for KNTD - February, 2014

Change the Weather History Date:

Wednesday, February 12, 2014

  Actual Average Record
Temperature  
Mean Temperature 62 °F -  
Max Temperature 75 °F 60 °F 88 °F (2015)
Min Temperature 50 °F 44 °F 1 °F (2013)
Degree Days  
Heating Degree Days 2    
Growing Degree Days 12 (Base 50)    
Moisture  
Dew Point 49 °F    
Average Humidity 69    
Maximum Humidity 93    
Minimum Humidity 34    
Precipitation  
Precipitation 0.00 in - - ()
Sea Level Pressure  
Sea Level Pressure 30.08 in    
Wind  
Wind Speed 5 mph (NW)    
Max Wind Speed 10 mph    
Max Gust Speed -    
Visibility 7 miles    
Events      
Averages and records for this station are not official NWS values.
T = Trace of Precipitation, MM = Missing Value Source: NWS Daily Summary

Daily Weather History Graph

Daily Weather History Graph

Search for Another Location

Airport or City:

Trip Planner

Search our weather history database for the weather conditions in past years. The results will help you decide how hot, cold, wet, or windy it might be!

Date:

Astronomy

Feb. 12, 2014 Rise Set
Actual Time 6:44 AM PST 5:37 PM PST
Civil Twilight 6:18 AM PST 6:03 PM PST
Nautical Twilight 5:49 AM PST 6:32 PM PST
Astronomical Twilight 5:19 AM PST 7:02 PM PST
Moon 3:57 PM PST (2/12) 5:01 AM PST (2/12)
Length of Visible Light 11h 44m
Length of Day
10h 53m
Waxing Gibbous, 96% of the Moon is Illuminated
Feb 12
Waxing Gibbous
Feb 14
Full
Feb 22
Last Quarter
Mar 1
New
Mar 8
First Quarter

Hourly Weather History & Observations

Time (PST) Temp. Dew Point Humidity Pressure Visibility Wind Dir Wind Speed Gust Speed Precip Events Conditions
12:08 AM 57.9 °F 55.0 °F 90% 30.08 in - SSE 5.8 mph - N/A   Scattered Clouds
12:16 AM 57.0 °F 55.0 °F 93% 30.09 in - South 3.5 mph - N/A   Mostly Cloudy
12:54 AM 54.0 °F 52.0 °F 93% 30.09 in - ENE 3.5 mph - N/A   Overcast
1:28 AM 52.0 °F 50.0 °F 93% 30.10 in - NE 3.5 mph - N/A   Partly Cloudy
1:54 AM 53.1 °F 48.0 °F 83% 30.10 in - NNE 5.8 mph - N/A   Clear
2:54 AM 53.1 °F 46.0 °F 77% 30.09 in - NNE 5.8 mph - N/A   Clear
3:54 AM 53.1 °F 43.0 °F 69% 30.08 in - Calm Calm - N/A   Clear
4:54 AM 54.0 °F 41.0 °F 62% 30.08 in - Calm Calm - N/A   Clear
5:54 AM 50.0 °F 39.9 °F 68% 30.08 in 7.0 mi Calm Calm - N/A   Scattered Clouds
6:54 AM 51.1 °F 37.0 °F 59% 30.11 in 7.0 mi North 4.6 mph - N/A   Scattered Clouds
7:54 AM 57.0 °F 41.0 °F 55% 30.13 in 7.0 mi Calm Calm - N/A   Scattered Clouds
8:54 AM 64.9 °F 43.0 °F 45% 30.14 in 7.0 mi North 3.5 mph - N/A   Scattered Clouds
9:54 AM 69.1 °F 46.9 °F 45% 30.14 in 7.0 mi NNW 3.5 mph - N/A   Mostly Cloudy
10:54 AM 71.1 °F 50.0 °F 47% 30.13 in 7.0 mi WSW 6.9 mph - N/A   Mostly Cloudy
11:54 AM 70.0 °F 53.1 °F 55% 30.13 in 7.0 mi West 10.4 mph - N/A   Mostly Cloudy
12:54 PM 71.1 °F 53.1 °F 53% 30.10 in 7.0 mi West 9.2 mph - N/A   Mostly Cloudy
1:54 PM 73.9 °F 50.0 °F 43% 30.07 in 7.0 mi West 5.8 mph - N/A   Mostly Cloudy
2:54 PM 75.0 °F 45.0 °F 34% 30.05 in 7.0 mi NW 5.8 mph - N/A   Mostly Cloudy
3:54 PM 70.0 °F 48.9 °F 47% 30.04 in 7.0 mi West 9.2 mph - N/A   Mostly Cloudy
4:54 PM 66.9 °F 54.0 °F 63% 30.05 in 7.0 mi WNW 6.9 mph - N/A   Mostly Cloudy
5:54 PM 62.1 °F 54.0 °F 75% 30.04 in 7.0 mi WNW 4.6 mph - N/A   Scattered Clouds
6:54 PM 60.1 °F 54.0 °F 80% 30.05 in 7.0 mi NNW 3.5 mph - N/A   Scattered Clouds
7:54 PM 60.1 °F 54.0 °F 80% 30.04 in 7.0 mi NW 5.8 mph - N/A   Scattered Clouds
8:54 PM 57.9 °F 54.0 °F 87% 30.06 in 7.0 mi NNW 5.8 mph - N/A   Scattered Clouds
9:54 PM 55.9 °F 53.1 °F 90% 30.06 in 7.0 mi NNE 4.6 mph - N/A   Scattered Clouds
10:54 PM 54.0 °F 51.1 °F 90% 30.06 in 7.0 mi North 3.5 mph - N/A   Scattered Clouds
11:54 PM 54.0 °F 51.1 °F 90% 30.06 in 7.0 mi NNW 3.5 mph - N/A   Scattered Clouds